Preview of NWS' New Version of Forecast
This preview is not operational and should not be used for support decisions.

Regional Weather Roundup (RWR)

Issued by Gray - Portland, ME (GYX)

                            
000
ASUS41 KGYX 220705
RWRGYX
WEATHER ROUNDUP FOR MAINE AND NEW HAMPSHIRE
NATIONAL WEATHER SERVICE GRAY ME
300 AM EDT WED MAY 22 2019

MEZ002-005-006-010-012-015-018-020-021-024-026-027-029-220800-
MAINE
  
CITY           SKY/WX    TMP DP  RH WIND       PRES   REMARKS
PORTLAND       FAIR      49  34  56 N5        29.99R                  
SANFORD        FAIR      45  36  70 N3        30.00R                  
BAR HARBOR     FAIR      44  35  70 NW10      29.92R                  
WISCASSET      MOCLDY    50  34  54 VRB3      29.96R                  
ROCKLAND       FAIR      47  35  63 NW8       29.94R                  
FRYEBURG       FAIR      50  32  50 N13G26    30.01R                  
LEWISTONAUBURN FAIR      48  34  58 NW12      29.99R                  
AUGUSTA        FAIR      47  37  68 NW13      29.97R                  
WATERVILLE     MOCLDY    45  37  73 N13G21    29.95R                  
BANGOR         CLOUDY    46  36  68 N16       29.94R                  
GREENVILLE       N/A     40  34  79 N14G26    29.94R                  
MILLINOCKET    CLOUDY    45  34  65 NW14G21   29.95R                  
HOULTON        CLOUDY    40  36  86 N14G21    29.89R                  
PRESQUE ISLE   CLOUDY    41  37  86 NW14      29.93R                  
FRENCHVILLE    CLOUDY    42  36  79 NW17G23   29.92R                  
CARIBOU        CLOUDY    41  36  82 N14G22    29.91R                  
$$

NHZ002-005-008-009-011-012-014-220800-
NEW HAMPSHIRE
  
CITY           SKY/WX    TMP DP  RH WIND       PRES   REMARKS
PORTSMOUTH     PTCLDY    53  31  43 NW13G21   29.99R                  
ROCHESTER      FAIR      53  31  42 NW18G28   29.99R                  
NASHUA         FAIR      54  37  52 NW10      30.04R                  
MANCHESTER     FAIR      53  37  54 W7        30.01R                  
CONCORD        FAIR      51  37  58 NW12G20   30.02R                  
LACONIA        CLOUDY    52  36  54 N9G22     30.04R                  
PLYMOUTH       DRIZZLE   51  36  57 NW12G20   30.04R                  
BERLIN         FAIR      46  32  58 N14G22    30.03R                  
WHITEFIELD     FAIR      44  32  62 N6        30.05R                  
JAFFREY        FAIR      51  34  52 VRB6      30.05R                  
KEENE          FAIR      43  40  89 CALM      30.06R                  
LEBANON        FAIR      47  36  65 NE3       30.06R                  
MT WASHINGTON  FOG       23  23 100 NW69G79     N/A  VSB 1/16WCI  -1  
$$

VTZ005-007-008-220800-
VERMONT
  
CITY           SKY/WX    TMP DP  RH WIND       PRES   REMARKS
ST JOHNSBURY     N/A     48  37  65 MISG      30.06R                  
MONTPELIER     FAIR      48  35  60 N10       30.11R                  
BURLINGTON     FAIR      49  39  68 N3        30.11R                  
$$

MAZ007-012-024-CTZ003-RIZ002-NYZ038-NYZ072-220800-
SOUTHERN NEW ENGLAND AND NY
  
CITY           SKY/WX    TMP DP  RH WIND       PRES   REMARKS
BOSTON         FAIR      58  36  43 NW16G26   30.02R                  
WORCESTER      FAIR      49  34  56 W13       30.05R                  
NANTUCKET      FAIR      56  37  49 NW17G26   29.98R                  
PROVIDENCE     FAIR      55  35  47 NW8       30.04R                  
HARTFORD       FAIR      50  35  56 W6        30.08R                  
ALBANY         FAIR      50  37  61 NW6       30.12R                  
NEW YORK CITY  MOCLDY    59  36  42 NW13      30.12S                  
$$

ANZ081-ANZ082-ANZ150-NHZ014-MEZ023>029-220800-
COASTAL MARINE OBSERVATIONS
  
STATION/POSITION TIME  TEMP    WIND        PRES    WAVE
                       AIR SEA DIR/SP/G            HT/PER
                 (UTC) (F)     (DEG/KT/KT) (MB)    (FT/S)
ISLE OF SHOALS   0600   54     320/ 18/ 20 1014.2R
JEFFREYS LEDGE   0638      47                N/A     3/ 4
CASHES LEDGE BUO 0650   48 46              1012.7    3/ 5
GEORGES BANK BUO 0650   49 45  310/ 19/ 23 1011.3R   6/ 8
$$

.............KEY..............
   WCI - WIND CHILL
   TC  - TEMPERATURE IN CELSIUS
   VSB - VISIBILITY IN MILES
   HX  - HEAT INDEX
   FAIR- INDICATES FEW OR NO CLOUDS BELOW 12,000 FT, WITH NO 
         SIGNIFICANT WEATHER AND/OR OBSTRUCTIONS TO VISIBILITY.